{"data":{"norad_id":66155,"epoch":"2026-09-19T11:46:03.178848Z","epoch_age_seconds":187621,"freshness":"STALE","line1":"1 66155U 25240K   26262.49031457  .00013260  00000+0  40279-3 0  9993","line2":"2 66155  53.1562 238.1275 0001141  91.5805 268.5328 15.34406412 51729","mean_motion":15.34406412,"eccentricity":0.0001141,"inclination_deg":53.1562,"raan_deg":238.1275,"arg_perigee_deg":91.5805,"mean_anomaly_deg":268.5328,"bstar":0.00040279,"rev_number":5172,"period_min":93.847365908948,"perigee_km":461.90364476129,"apogee_km":463.46472015512,"semimajor_km":6840.8211824582,"source":"CELESTRAK","updated_at":"2026-09-21T09:00:35.813996Z"}}